DK9XR-14 Weather Reports


Display with metric or nautical units.
time (UTC)temp
F
wind
direction
speed
MPH
gust
MPH
rain 1hr
in
rain 24hr
in
rain mn
in
humidity
%
barometer
mb
20260503222229 59 4 2.0 4.0 0.00 0.00 0.00 50 1016.9
20260503221729 59 283 2.0 4.0 0.00 0.00 0.00 50 1017.0
20260503221229 59 324 1.0 4.0 0.00 0.00 0.00 51 1016.9
20260503220731 59 320 2.0 4.0 0.00 0.00 0.00 51 1016.9
20260503220229 59 14 2.0 6.0 0.00 0.00 0.00 51 1016.9
20260503215730 60 313 4.0 6.0 0.00 0.00 0.00 50 1016.6
20260503215229 59 320 2.0 4.0 0.00 0.00 0.00 51 1016.7
20260503214730 60 300 2.0 4.0 0.00 0.00 0.00 51 1016.7
20260503214231 60 329 2.0 4.0 0.00 0.00 0.00 52 1016.7
20260503213729 60 300 1.0 3.0 0.00 0.00 0.00 51 1016.7
20260503213229 60 331 1.0 3.0 0.00 0.00 0.00 51 1016.7
20260503212729 61 14 0.0 3.0 0.00 0.00 0.00 52 1016.6
20260503212231 61 14 0.0 4.0 0.00 0.00 0.00 50 1016.5
20260503211726 61 0 2.0 4.0 0.00 0.00 0.00 49 1016.4
20260503211226 62 357 2.0 4.0 0.00 0.00 0.00 49 1016.4
20260503210729 62 16 2.0 5.0 0.00 0.00 0.00 49 1016.5
20260503210225 62 13 2.0 6.0 0.00 0.00 0.00 49 1016.4
20260503205723 62 6 3.0 6.0 0.00 0.00 0.00 48 1016.3
20260503205221 63 353 2.0 10.0 0.00 0.00 0.00 49 1016.2
20260503204719 63 54 3.0 10.0 0.00 0.00 0.00 48 1016.1
20260503204216 63 28 5.0 11.0 0.00 0.00 0.00 47 1016.1
20260503203714 64 334 7.0 13.0 0.00 0.00 0.00 47 1016.1
20260503203215 64 62 6.0 13.0 0.00 0.00 0.00 48 1016.0
20260503202714 64 326 7.0 11.0 0.00 0.00 0.00 49 1016.0
20260503202212 64 350 5.0 11.0 0.00 0.00 0.00 52 1016.0
20260503201714 64 323 2.0 9.0 0.00 0.00 0.00 55 1015.9
20260503201213 65 348 2.0 10.0 0.00 0.00 0.00 54 1015.8
20260503200711 65 351 5.0 11.0 0.00 0.00 0.00 54 1015.7
20260503200211 65 23 6.0 14.0 0.00 0.00 0.00 53 1015.6
20260503195711 65 32 8.0 14.0 0.00 0.00 0.00 52 1015.5
20260503195206 65 35 3.0 5.0 0.00 0.00 0.00 52 1015.4
20260503194706 66 326 2.0 5.0 0.00 0.00 0.00 51 1015.3
20260503194202 66 306 2.0 5.0 0.00 0.00 0.00 50 1015.2
20260503193701 66 355 2.0 7.0 0.00 0.00 0.00 49 1015.1
20260503193204 67 317 4.0 7.0 0.00 0.00 0.00 48 1015.0
20260503192703 67 344 4.0 9.0 0.00 0.00 0.00 48 1015.0
20260503192203 67 358 4.0 9.0 0.00 0.00 0.00 47 1014.8
20260503191702 67 338 1.0 5.0 0.00 0.00 0.00 47 1014.6
20260503191201 67 341 0.0 3.0 0.00 0.00 0.00 46 1014.6
20260503190702 68 320 2.0 5.0 0.00 0.00 0.00 45 1014.5
20260503190201 68 345 2.0 6.0 0.00 0.00 0.00 44 1014.4
20260503185702 68 20 2.0 6.0 0.00 0.00 0.00 44 1014.2
20260503185201 69 329 3.0 7.0 0.00 0.00 0.00 43 1014.3
20260503184703 69 344 4.0 10.0 0.00 0.00 0.00 42 1014.1
20260503184200 69 35 2.0 10.0 0.00 0.00 0.00 42 1014.0
20260503183703 69 55 2.0 6.0 0.00 0.00 0.00 42 1013.9
20260503183201 70 39 2.0 6.0 0.00 0.00 0.00 42 1013.9
20260503182703 70 55 2.0 6.0 0.00 0.00 0.00 42 1013.8
20260503182200 70 47 3.0 9.0 0.00 0.00 0.00 41 1013.8
20260503181658 70 25 4.0 7.0 0.00 0.00 0.00 40 1013.9
20260503181156 70 313 2.0 7.0 0.00 0.00 0.00 40 1014.0
20260503180658 71 312 2.0 7.0 0.00 0.00 0.00 39 1014.1
20260503180156 71 4 4.0 7.0 0.00 0.00 0.00 39 1014.0
20260503175656 72 23 4.0 7.0 0.00 0.00 0.00 38 1013.9
20260503175157 72 290 3.0 7.0 0.00 0.00 0.00 36 1014.0
20260503174656 73 313 4.0 6.0 0.00 0.00 0.00 34 1014.0
20260503174157 73 313 3.0 9.0 0.00 0.00 0.00 32 1013.8
20260503173656 73 296 5.0 9.0 0.00 0.00 0.00 29 1013.8
20260503173158 74 312 3.0 4.0 0.00 0.00 0.00 29 1013.8
20260503172656 74 309 1.0 4.0 0.00 0.00 0.00 29 1013.8
20260503172157 74 295 1.0 7.0 0.00 0.00 0.00 29 1013.8
20260503171656 75 302 4.0 7.0 0.00 0.00 0.00 28 1013.8
20260503171158 76 303 3.0 7.0 0.00 0.00 0.00 28 1013.6
20260503170657 76 238 0.0 1.0 0.00 0.00 0.00 31 1013.7
20260503170157 76 223 0.0 2.0 0.00 0.00 0.00 30 1013.7
20260503160155 77 45 1.0 5.0 0.00 0.00 0.00 28 1013.6
20260503150651 77 32 3.0 6.0 0.00 0.00 0.00 28 1014.1
20260503150147 76 283 1.0 10.0 0.00 0.00 0.00 29 1014.0
20260503140139 76 283 7.0 10.0 0.00 0.00 0.00 30 1014.4
20260503131130 76 292 3.0 7.0 0.00 0.00 0.00 28 1014.9
20260503130629 77 237 3.0 6.0 0.00 0.00 0.00 27 1014.9
20260503130131 77 282 3.0 6.0 0.00 0.00 0.00 27 1014.9
20260503120120 76 78 3.0 5.0 0.00 0.00 0.00 31 1015.5
20260503110608 75 141 1.0 5.0 0.00 0.00 0.00 35 1015.9
20260503110109 73 343 1.0 6.0 0.00 0.00 0.00 37 1016.0
20260503081555 68 271 2.0 4.0 0.00 0.00 0.00 42 1017.3
20260503081056 67 27 0.0 3.0 0.00 0.00 0.00 46 1017.3
20260503080555 67 295 0.0 3.0 0.00 0.00 0.00 47 1017.5
20260503072556 63 209 1.0 3.0 0.00 0.00 0.00 55 1017.4
20260503072055 62 265 1.0 4.0 0.00 0.00 0.00 56 1017.4
20260503071555 62 321 2.0 4.0 0.00 0.00 0.00 56 1017.4
20260503071054 61 271 1.0 4.0 0.00 0.00 0.00 57 1017.5
20260503070556 61 271 1.0 6.0 0.00 0.00 0.00 59 1017.5
20260503055045 51 157 1.0 2.0 0.00 0.00 0.00 77 1017.5
20260503054543 50 206 0.0 0.0 0.00 0.00 0.00 79 1017.6
20260503054046 49 207 0.0 0.0 0.00 0.00 0.00 80 1017.6
20260503053543 48 207 0.0 0.0 0.00 0.00 0.00 81 1017.6
20260503053042 47 207 0.0 1.0 0.00 0.00 0.00 81 1017.5
20260503052540 47 207 0.0 1.0 0.00 0.00 0.00 82 1017.6
20260503052041 46 207 0.0 0.0 0.00 0.00 0.00 82 1017.6
20260503051540 46 207 0.0 0.0 0.00 0.00 0.00 83 1017.6
20260503051038 45 207 0.0 0.0 0.00 0.00 0.00 84 1017.6
20260503050539 45 207 0.0 0.0 0.00 0.00 0.00 84 1017.7
20260503050038 44 207 0.0 0.0 0.00 0.00 0.00 85 1017.6
20260503045535 44 207 0.0 1.0 0.00 0.00 0.00 85 1017.7
20260503044536 44 140 0.0 0.0 0.00 0.00 0.00 86 1017.6
20260503044034 43 140 0.0 1.0 0.00 0.00 0.00 86 1017.6
20260503043535 43 140 0.0 1.0 0.00 0.00 0.00 86 1017.6
20260503043034 43 140 0.0 1.0 0.00 0.00 0.00 86 1017.5
20260503042531 43 166 0.0 1.0 0.00 0.00 0.00 86 1017.6
20260503042033 43 155 0.0 1.0 0.00 0.00 0.00 86 1017.6
20260503041532 43 155 0.0 1.0 0.00 0.00 0.00 86 1017.5
20260503041029 43 209 0.0 1.0 0.00 0.00 0.00 86 1017.5
20260503040530 43 209 0.0 0.0 0.00 0.00 0.00 86 1017.4
20260503040026 43 209 0.0 0.0 0.00 0.00 0.00 86 1017.4
20260503035523 43 209 0.0 1.0 0.00 0.00 0.00 86 1017.4
20260503035024 43 209 0.0 1.0 0.00 0.00 0.00 85 1017.4
20260503034524 43 209 0.0 1.0 0.00 0.00 0.00 85 1017.4
20260503034025 43 209 0.0 1.0 0.00 0.00 0.00 85 1017.3
20260503033522 43 220 0.0 1.0 0.00 0.00 0.00 85 1017.4
20260503033021 43 220 0.0 1.0 0.00 0.00 0.00 85 1017.3
20260503032523 43 220 0.0 0.0 0.00 0.00 0.00 85 1017.3
20260503032020 43 220 0.0 0.0 0.00 0.00 0.00 85 1017.4
20260503031518 43 220 0.0 1.0 0.00 0.00 0.00 85 1017.4
20260503031022 43 220 0.0 1.0 0.00 0.00 0.00 84 1017.4
20260503030518 43 220 0.0 1.0 0.00 0.00 0.00 84 1017.4
20260503030017 44 220 0.0 1.0 0.00 0.00 0.00 84 1017.4
20260503025519 44 220 0.0 0.0 0.00 0.00 0.00 84 1017.5
20260503025017 44 220 0.0 0.0 0.00 0.00 0.00 84 1017.5
20260503024515 44 220 0.0 1.0 0.00 0.00 0.00 83 1017.5
20260503024017 44 220 0.0 1.0 0.00 0.00 0.00 83 1017.6
20260503023515 44 220 0.0 1.0 0.00 0.00 0.00 83 1017.6
20260503023014 44 220 0.0 1.0 0.00 0.00 0.00 83 1017.5
20260503022514 44 152 0.0 0.0 0.00 0.00 0.00 84 1017.7
20260503022013 44 241 0.0 0.0 0.00 0.00 0.00 83 1017.8
20260503021511 44 227 0.0 0.0 0.00 0.00 0.00 83 1017.8
20260503021012 45 158 0.0 0.0 0.00 0.00 0.00 82 1017.7
20260503020509 45 158 0.0 0.0 0.00 0.00 0.00 82 1017.7
20260503020010 45 158 0.0 0.0 0.00 0.00 0.00 82 1017.7
20260503015511 45 158 0.0 0.0 0.00 0.00 0.00 82 1017.7
20260503015008 45 158 0.0 0.0 0.00 0.00 0.00 82 1017.7
20260503014509 45 158 0.0 0.0 0.00 0.00 0.00 82 1017.7
20260503014008 45 158 0.0 1.0 0.00 0.00 0.00 81 1017.7
20260503013506 45 158 0.0 1.0 0.00 0.00 0.00 81 1017.7
20260503013006 46 157 0.0 1.0 0.00 0.00 0.00 81 1017.8
20260503012507 46 202 0.0 0.0 0.00 0.00 0.00 81 1017.8
20260503012005 46 202 0.0 0.0 0.00 0.00 0.00 81 1017.8
20260503011505 46 234 0.0 0.0 0.00 0.00 0.00 81 1017.8
20260503011003 46 234 0.0 1.0 0.00 0.00 0.00 81 1017.8
20260503010501 46 234 0.0 1.0 0.00 0.00 0.00 80 1017.7
20260503010005 46 138 0.0 1.0 0.00 0.00 0.00 80 1017.9
20260503005503 46 138 0.0 1.0 0.00 0.00 0.00 80 1017.8
20260503005000 46 138 0.0 1.0 0.00 0.00 0.00 79 1017.8
20260503004458 47 138 0.0 1.0 0.00 0.00 0.00 79 1017.8
20260503004001 47 154 0.0 0.0 0.00 0.00 0.00 78 1017.9
20260503003457 47 154 0.0 0.0 0.00 0.00 0.00 78 1017.8
20260503002957 47 154 0.0 0.0 0.00 0.00 0.00 78 1017.9
20260503002453 47 154 0.0 0.0 0.00 0.00 0.00 77 1017.9
20260503001952 47 154 0.0 0.0 0.00 0.00 0.00 77 1017.9
20260503001455 47 154 0.0 0.0 0.00 0.00 0.00 77 1017.9
20260503000952 48 154 0.0 0.0 0.00 0.00 0.00 76 1018.1
20260503000451 48 154 0.0 0.0 0.00 0.00 0.00 76 1018.0
20260502235952 48 154 0.0 0.0 0.00 0.00 0.00 76 1018.2
20260502235449 48 154 0.0 0.0 0.00 0.00 0.00 76 1018.2
20260502234949 48 154 0.0 0.0 0.00 0.00 0.00 76 1018.1
20260502234451 48 154 0.0 0.0 0.00 0.00 0.00 75 1018.1
20260502233947 48 154 0.0 0.0 0.00 0.00 0.00 75 1018.2
20260502233446 48 154 0.0 0.0 0.00 0.00 0.00 75 1018.2
20260502232944 48 154 0.0 0.0 0.00 0.00 0.00 74 1018.2
20260502232445 49 154 0.0 0.0 0.00 0.00 0.00 74 1018.3
20260502231944 49 154 0.0 0.0 0.00 0.00 0.00 73 1018.3
20260502231445 49 154 0.0 0.0 0.00 0.00 0.00 73 1018.2
20260502230944 49 154 0.0 0.0 0.00 0.00 0.00 72 1018.3
20260502230442 50 154 0.0 0.0 0.00 0.00 0.00 72 1018.3
20260502225943 50 154 0.0 0.0 0.00 0.00 0.00 72 1018.3
20260502225443 50 154 0.0 0.0 0.00 0.00 0.00 71 1018.3
20260502224940 50 154 0.0 0.0 0.00 0.00 0.00 70 1018.3
20260502224441 50 154 0.0 0.0 0.00 0.00 0.00 70 1018.3
20260502223940 50 154 0.0 0.0 0.00 0.00 0.00 70 1018.3
20260502223437 50 154 0.0 0.0 0.00 0.00 0.00 70 1018.4
20260502222940 51 154 0.0 0.0 0.00 0.00 0.00 70 1018.3